Newport, VT

7:35 PM EST on November 23, 2017 (GMT -0500)
Newport State

Weather History for KEFK - May, 2014

Change the Weather History Date:

Saturday, May 10, 2014

  Actual Average Record
Temperature  
Mean Temperature 64 °F -  
Max Temperature 75 °F 63 °F 90 °F (1953)
Min Temperature 52 °F 42 °F 25 °F (1947)
Degree Days  
Heating Degree Days 2    
Growing Degree Days 14 (Base 50)    
Moisture  
Dew Point 46 °F    
Average Humidity 62    
Maximum Humidity 94    
Minimum Humidity 29    
Precipitation  
Precipitation 0.00 in - - ()
Sea Level Pressure  
Sea Level Pressure 29.78 in    
Wind  
Wind Speed 12 mph (SSW)    
Max Wind Speed 24 mph    
Max Gust Speed 41 mph    
Visibility 10 miles    
Events Rain    
Averages and records for this station are not official NWS values.
T = Trace of Precipitation, MM = Missing Value Source: NWS Daily Summary

Daily Weather History Graph

Daily Weather History Graph

Search for Another Location

Airport or City:

Trip Planner

Search our weather history database for the weather conditions in past years. The results will help you decide how hot, cold, wet, or windy it might be!

Date:

Astronomy

May. 10, 2014 Rise Set
Actual Time 5:26 AM EDT 8:05 PM EDT
Civil Twilight 4:52 AM EDT 8:38 PM EDT
Nautical Twilight 4:10 AM EDT 9:21 PM EDT
Astronomical Twilight 3:22 AM EDT 10:09 PM EDT
Moon 3:47 PM EDT (5/10) 3:09 AM EDT (5/10)
Length of Visible Light 15h 45m
Length of Day
14h 38m
Waxing Gibbous, 82% of the Moon is Illuminated
May 10
Waxing Gibbous
May 14
Full
May 21
Last Quarter
May 28
New
Jun 5
First Quarter

Hourly Weather History & Observations

Time (EDT) Temp. Dew Point Humidity Pressure Visibility Wind Dir Wind Speed Gust Speed Precip Events Conditions
12:15 AM 52.0 °F 46.8 °F 82% 29.96 in 10.0 mi SSE 17.3 mph 21.9 mph N/A   Overcast
12:35 AM 52.3 °F 47.3 °F 83% 29.95 in 10.0 mi SSE 12.7 mph - N/A   Overcast
12:55 AM 52.7 °F 47.5 °F 82% 29.94 in 10.0 mi SSE 11.5 mph - N/A   Overcast
1:15 AM 52.9 °F 47.8 °F 83% 29.93 in 10.0 mi SSE 10.4 mph - N/A   Overcast
1:35 AM 53.2 °F 48.2 °F 83% 29.92 in 10.0 mi SSE 10.4 mph - N/A   Overcast
1:55 AM 52.5 °F 47.8 °F 84% 29.90 in 10.0 mi South 11.5 mph - N/A   Overcast
2:15 AM 52.3 °F 48.2 °F 86% 29.89 in 10.0 mi SSE 12.7 mph - N/A   Overcast
2:35 AM 52.7 °F 48.4 °F 85% 29.90 in 10.0 mi South 10.4 mph 18.4 mph N/A   Overcast
2:55 AM 52.7 °F 48.6 °F 86% 29.89 in 10.0 mi SSE 9.2 mph - N/A   Overcast
3:15 AM 52.7 °F 48.7 °F 86% 29.87 in 10.0 mi SSE 8.1 mph - N/A   Light Drizzle
3:35 AM 53.1 °F 49.1 °F 86% 29.87 in 10.0 mi SSE 8.1 mph - N/A Rain Rain
3:55 AM 53.1 °F 49.6 °F 88% 29.86 in 10.0 mi SSE 8.1 mph - N/A   Light Drizzle
4:15 AM 53.2 °F 50.0 °F 89% 29.84 in 10.0 mi South 8.1 mph - N/A Rain Rain
4:35 AM 52.9 °F 50.0 °F 90% 29.83 in 10.0 mi South 9.2 mph - N/A Rain Rain
4:55 AM 52.9 °F 50.2 °F 91% 29.83 in 10.0 mi SSE 8.1 mph - N/A Rain Light Rain
5:15 AM 52.9 °F 50.4 °F 91% 29.82 in 10.0 mi South 8.1 mph - N/A Rain Rain
5:35 AM 52.9 °F 50.5 °F 92% 29.83 in 10.0 mi South 6.9 mph - N/A Rain Light Rain
5:55 AM 53.1 °F 50.9 °F 92% 29.83 in 7.0 mi South 8.1 mph - N/A Rain Rain
6:15 AM 53.1 °F 51.1 °F 93% 29.82 in 10.0 mi SSE 8.1 mph - N/A Rain Rain
6:35 AM 53.2 °F 51.3 °F 93% 29.81 in 5.0 mi South 11.5 mph 16.1 mph N/A Rain Rain
6:55 AM 53.6 °F 51.8 °F 94% 29.82 in 4.0 mi South 4.6 mph - N/A Rain Rain
7:15 AM 54.0 °F 52.3 °F 94% 29.82 in 5.0 mi South 9.2 mph - N/A Rain Rain
7:35 AM 54.1 °F 52.2 °F 93% 29.81 in 7.0 mi South 10.4 mph - N/A Rain Rain
7:55 AM 54.5 °F 52.7 °F 94% 29.81 in 10.0 mi South 5.8 mph - N/A Rain Light Rain
8:15 AM 54.9 °F 53.1 °F 94% 29.80 in 10.0 mi South 4.6 mph - N/A   Drizzle
8:35 AM 55.0 °F 53.2 °F 94% 29.79 in 10.0 mi South 5.8 mph - N/A   Light Drizzle
8:55 AM 55.9 °F 54.1 °F 94% 29.78 in 10.0 mi South 5.8 mph - N/A   Overcast
9:15 AM 57.4 °F 55.4 °F 93% 29.78 in 10.0 mi SSW 8.1 mph - N/A   Scattered Clouds
9:55 AM 61.0 °F 57.9 °F 90% 29.78 in 10.0 mi SSW 9.2 mph - N/A   Scattered Clouds
10:15 AM 62.6 °F 58.3 °F 86% 29.78 in 10.0 mi South 11.5 mph 16.1 mph N/A   Mostly Cloudy
10:35 AM 63.5 °F 58.6 °F 84% 29.77 in 10.0 mi South 10.4 mph 17.3 mph N/A   Scattered Clouds
10:55 AM 65.5 °F 59.9 °F 82% 29.76 in 10.0 mi South 10.4 mph 17.3 mph N/A   Clear
11:15 AM 66.6 °F 59.4 °F 78% 29.76 in 10.0 mi South 12.7 mph 17.3 mph N/A   Clear
11:35 AM 67.5 °F 59.2 °F 75% 29.75 in 10.0 mi South 12.7 mph - N/A   Scattered Clouds
11:55 AM 68.4 °F 59.4 °F 73% 29.75 in 10.0 mi South 11.5 mph 16.1 mph N/A   Scattered Clouds
12:15 PM 69.8 °F 57.7 °F 65% 29.74 in 10.0 mi SSW 10.4 mph 17.3 mph N/A   Mostly Cloudy
12:35 PM 71.8 °F 55.0 °F 55% 29.73 in 10.0 mi WSW 13.8 mph 26.5 mph N/A   Mostly Cloudy
12:55 PM 72.9 °F 54.7 °F 53% 29.73 in 10.0 mi WSW 18.4 mph 28.8 mph N/A   Mostly Cloudy
1:15 PM 73.2 °F 54.1 °F 51% 29.73 in 10.0 mi SW 13.8 mph 25.3 mph N/A   Scattered Clouds
1:35 PM 72.5 °F 52.3 °F 49% 29.72 in 10.0 mi WSW 16.1 mph 26.5 mph N/A   Mostly Cloudy
1:55 PM 71.6 °F 51.1 °F 48% 29.72 in 10.0 mi SW 13.8 mph 23.0 mph N/A   Mostly Cloudy
2:15 PM 71.8 °F 51.3 °F 48% 29.72 in 10.0 mi WSW 15.0 mph 24.2 mph N/A   Mostly Cloudy
2:35 PM 72.9 °F 48.9 °F 43% 29.70 in 10.0 mi WSW 16.1 mph 27.6 mph N/A   Scattered Clouds
2:55 PM 74.1 °F 48.6 °F 40% 29.70 in 10.0 mi WSW 17.3 mph 26.5 mph N/A   Scattered Clouds
3:15 PM 73.9 °F 43.9 °F 34% 29.69 in 10.0 mi WSW 23.0 mph 41.4 mph N/A   Scattered Clouds
3:35 PM 74.7 °F 42.6 °F 32% 29.69 in 10.0 mi WSW 19.6 mph 29.9 mph N/A   Scattered Clouds
3:55 PM 74.5 °F 42.3 °F 31% 29.69 in 10.0 mi WSW 19.6 mph 35.7 mph N/A   Scattered Clouds
4:15 PM 75.0 °F 43.5 °F 32% 29.69 in 10.0 mi SW 20.7 mph 31.1 mph N/A   Scattered Clouds
4:35 PM 74.3 °F 41.5 °F 31% 29.69 in 10.0 mi WSW 20.7 mph 32.2 mph N/A   Clear
4:55 PM 74.1 °F 41.2 °F 31% 29.69 in 10.0 mi WSW 15.0 mph 20.7 mph N/A   Scattered Clouds
5:15 PM 73.0 °F 41.2 °F 32% 29.69 in 10.0 mi WSW 20.7 mph 31.1 mph N/A   Scattered Clouds
5:35 PM 72.7 °F 40.3 °F 31% 29.69 in 10.0 mi WSW 24.2 mph 31.1 mph N/A   Clear
5:55 PM 72.1 °F 40.6 °F 32% 29.69 in 10.0 mi WSW 17.3 mph 24.2 mph N/A   Clear
6:15 PM 71.2 °F 39.0 °F 31% 29.69 in 10.0 mi SW 17.3 mph 25.3 mph N/A   Clear
6:35 PM 70.7 °F 39.0 °F 32% 29.70 in 10.0 mi WSW 17.3 mph 24.2 mph N/A   Clear
6:55 PM 69.6 °F 38.5 °F 32% 29.70 in 10.0 mi SW 15.0 mph 26.5 mph N/A   Clear
7:15 PM 68.9 °F 38.3 °F 33% 29.71 in 10.0 mi West 11.5 mph - N/A   Clear
7:35 PM 68.0 °F 36.7 °F 32% 29.71 in 10.0 mi WSW 15.0 mph 20.7 mph N/A   Clear
7:55 PM 66.7 °F 35.6 °F 32% 29.72 in 10.0 mi WSW 13.8 mph 18.4 mph N/A   Clear
8:15 PM 66.2 °F 35.1 °F 32% 29.72 in 10.0 mi SW 10.4 mph - N/A   Clear
8:35 PM 65.3 °F 33.4 °F 31% 29.73 in 10.0 mi WSW 12.7 mph 18.4 mph N/A   Clear
8:55 PM 64.6 °F 32.2 °F 30% 29.73 in 10.0 mi SW 13.8 mph 20.7 mph N/A   Clear
9:15 PM 63.7 °F 32.0 °F 31% 29.74 in 10.0 mi SW 11.5 mph 16.1 mph N/A   Clear
9:35 PM 63.7 °F 31.1 °F 29% 29.75 in 10.0 mi SW 12.7 mph 16.1 mph N/A   Clear
9:55 PM 62.6 °F 31.6 °F 31% 29.76 in 10.0 mi SW 6.9 mph - N/A   Clear
10:15 PM 62.6 °F 31.1 °F 31% 29.77 in 10.0 mi West 6.9 mph - N/A   Clear
10:35 PM 61.7 °F 30.6 °F 31% 29.78 in 10.0 mi SW 5.8 mph - N/A   Clear
10:55 PM 59.5 °F 31.8 °F 35% 29.78 in 10.0 mi SSW 6.9 mph - N/A   Clear
11:15 PM 59.4 °F 33.8 °F 38% 29.79 in 10.0 mi SW 10.4 mph - N/A   Scattered Clouds
11:35 PM 60.1 °F 34.3 °F 38% 29.79 in 10.0 mi WSW 9.2 mph - N/A   Scattered Clouds
11:55 PM 60.1 °F 34.7 °F 39% 29.79 in 10.0 mi West 11.5 mph 20.7 mph N/A   Clear